This is the latest recevied weather packets stored in our database for station/object PU5BHV. If no packets are shown the sender has not sent any weather packets the latest 10 day(s).
| Time | Temp. | Humidity | Pressure | Rain* | Wind** | Luminosity | Snow |
|---|---|---|---|---|---|---|---|
| 1777832288 | 18.89° C | 79% | 1022.5 hPa | 0 mm | - | 126 W/m² | - |
| 1777831985 | 18.89° C | 79% | 1022.5 hPa | 0 mm | - | 140 W/m² | - |
| 1777831682 | 18.33° C | 80% | 1022.3 hPa | 0 mm | - | 132 W/m² | - |
| 1777831380 | 18.33° C | 81% | 1022.7 hPa | 0 mm | - | 107 W/m² | - |
| 1777831075 | 18.33° C | 81% | 1022.5 hPa | 0 mm | - | 110 W/m² | - |
| 1777830774 | 18.33° C | 81% | 1022.6 hPa | 0 mm | - | 131 W/m² | - |
| 1777830475 | 18.33° C | 81% | 1022.6 hPa | 0 mm | - | 139 W/m² | - |
| 1777830173 | 18.33° C | 81% | 1022.5 hPa | 0 mm | - | 142 W/m² | - |
| 1777829868 | 18.33° C | 82% | 1022.7 hPa | 0 mm | - | 147 W/m² | - |
| 1777829564 | 17.78° C | 83% | 1022.9 hPa | 0 mm | - | 130 W/m² | - |
| 1777829261 | 17.78° C | 82% | 1022.9 hPa | 0 mm | - | 125 W/m² | - |
| 1777828958 | 18.33° C | 82% | 1022.8 hPa | 0 mm | - | 120 W/m² | - |
| 1777828655 | 18.33° C | 82% | 1022.5 hPa | 0 mm | - | 130 W/m² | - |
| 1777828352 | 18.89° C | 82% | 1022.8 hPa | 0 mm | - | 141 W/m² | - |
| 1777828049 | 18.89° C | 81% | 1022.6 hPa | 0 mm | - | 142 W/m² | - |
| 1777827746 | 18.89° C | 81% | 1022.6 hPa | 0 mm | - | 163 W/m² | - |
| 1777827443 | 18.89° C | 80% | 1022.8 hPa | 0 mm | - | 158 W/m² | - |
| 1777827140 | 18.89° C | 80% | 1022.7 hPa | 0 mm | - | 144 W/m² | - |
| 1777826836 | 19.44° C | 78% | 1022.7 hPa | 0 mm | - | 161 W/m² | - |
| 1777826534 | 19.44° C | 76% | 1022.8 hPa | 0 mm | - | 165 W/m² | - |
| 1777826229 | 20° C | 64% | 1022.8 hPa | 0 mm | - | 181 W/m² | - |
| 1777825928 | 20° C | 65% | 1022.9 hPa | 0 mm | - | 166 W/m² | - |
| 1777825624 | 20° C | 60% | 1023 hPa | 0 mm | - | 177 W/m² | - |
| 1777825323 | 20.56° C | 60% | 1023 hPa | 0 mm | - | 212 W/m² | - |
| 1777825019 | 20° C | 59% | 1023 hPa | 0 mm | - | 268 W/m² | - |
* Rain latest hour (hover to see other rain measurements)
** Current wind speed in m/s (hover to see current wind gust speed)